Location: Aranbee
(34.0885°N, 118.2342°W)
Time: 17:44:25
(UTC+00:00)

Explorer 7 - Visible Passes

Search period start: 04 December 2020 00:00
Search period end: 14 December 2020 00:00
Orbit: 484 x 678 km, 50.3° (Epoch: 03 December)

Date Brightness Start Highest point End Pass type
(mag) Time Alt. Az. Time Alt. Az. Time Alt. Az.
04 Dec 8.4 13:06:15 20° N 13:07:53 26° NNE 13:11:16 10° E visible
05 Dec 7.8 13:10:56 26° NNW 13:12:40 40° NE 13:16:25 10° ESE visible
06 Dec 6.9 13:15:40 33° NW 13:17:22 67° NE 13:21:18 10° ESE visible
07 Dec 10.1 11:44:09 10° ENE 11:44:09 10° ENE 11:44:16 10° ENE visible
07 Dec 6.7 13:20:29 37° WNW 13:21:58 68° SW 13:25:54 10° SE visible
08 Dec 9.9 11:49:01 13° E 11:49:01 13° E 11:49:34 10° E visible
08 Dec 7.5 13:25:21 30° W 13:26:29 37° SW 13:30:08 10° SSE visible
09 Dec 9.8 11:53:57 14° ESE 11:53:57 14° ESE 11:54:38 10° ESE visible
09 Dec 8.3 13:30:18 20° WSW 13:30:53 21° SW 13:33:54 10° S visible
10 Dec 9.7 11:58:58 13° SE 11:58:58 13° SE 11:59:26 10° SE visible
10 Dec 9.0 13:35:18 11° SW 13:35:18 11° SW 13:36:30 10° SW visible
11 Dec 9.9 03:28:01 10° SSW 03:28:17 11° SSW 03:28:17 11° SSW visible
12 Dec 9.6 03:32:11 10° SW 03:33:22 17° SSW 03:33:22 17° SSW visible
13 Dec 9.0 01:58:38 10° SSE 02:01:29 16° SE 02:02:03 15° ESE visible
13 Dec 9.4 03:36:42 10° SW 03:38:24 22° SW 03:38:24 22° SW visible
